Location: Misciano
(43.5000°N, 11.9500°E)
Time: 08:25:46
(UTC+00:00)

Meteor 1-4 Rocket - Pass Details

Date: 13 August 2020
Orbit: 449 x 502 km, 81.2° (Epoch: 26 September)

Event Time Altitude Azimuth Distance (km) Brightness Sun altitude
Rises 19:32:54 0° 350° (N) 2,473 6.9 -12.9°
Reaches altitude 10° 19:34:59 10° 351° (N) 1,592 5.8 -13.2°
Maximum altitude 19:38:28 85° 80° (E) 457 2.3 -13.7°
Enters shadow 19:40:53 18° 169° (SSE) 1,158 4.0 -14.0°
